GSAT0102 (GALILEO-FM2)

Last updated on Sun Apr 12 2026 00:02:38 GMT+0000 (Coordinated Universal Time)

1 37847U 11060B 26100.61532650 -.00000074 00000+0 00000+0 0 9994 2 37847 57.0158 343.5959 0004917 1.4721 181.6971 1.70476109 89972
UTC large
Height (km)
Speed (km/s)
/
Latitude / Longitude
Inclination (degrees)
Orbital Period (minutes)
Azimuth
Elevation
Range (km)
Doppler Factor

Next 0 passes for location: London (51.5072 / 0.1276)

Sorry there are no passes over London.
GSAT0102 (GALILEO-FM2)